sat.trackr.live / text

‹ back to catalog

STARLINK-30340

NORAD 57884 · 2023-144W

PAYLOAD ACTIVE UNKNOWN

§ Identity

Operator
Country
US
Launch date
2023-09-16
Launch site
AFETR
Launch vehicle
Mass (kg)
RCS (m²)

Purposes: comms

External: N2YO · Heavens-Above · Gunter

§ Orbital elements

Epoch: 2026-05-25T05:03:27.358848Z

Period
94.27 min
Inclination
43.0020°
Eccentricity
0.0001311
Mean motion
15.27571380 rev/d
Perigee alt
482.2 km
Apogee alt
484.0 km
Semi-major
6,861.2 km
B*
3.7961e-5
RAAN
212.7549°
Arg perigee
274.5834°
Mean anomaly
85.4868°
Rev number
14,934

§ Raw data

STARLINK-303401 57884U 23144W   26145.21073332  .00000782  00000+0  37961-4 0  99912 57884  43.0020 212.7549 0001311 274.5834  85.4868 15.27571380149341

JSON: /api/v1/satellites/57884 · /tle

For live sub-satellite position, see the globe view (requires WebGL).

§ Visibility from observer

Set your observer location to see the next 7 days of passes ≥ 10°. The values pass through the URL so the page stays shareable.

No JS? Fill the form by hand. The geolocation button needs JavaScript.